User: anonymous   Login
Location: Hertford
(51.8000°N, 0.0667°W)
Time: 13:26:18
(UTC+00:00)
Language:

Okean 1-7 Rocket - Orbit

View from above orbital plane
View from above orbital plane
View from above satellite
View from above satellite

Ground track
Ground track

The orbit data is extracted from the following two-line orbital elements,

1 23318U 94066B   20331.04383986  .00000101  00000-0  10447-4 0  9994
2 23318  82.5419  82.0170 0025201  80.6110 279.7950 14.78886312408539
Epoch (UTC): 26 November 2020 01:03:07
Eccentricity: 0.0025201
inclination: 82.5419°
perigee height: 615 km
apogee height: 650 km
right ascension of ascending node: 82.0170°
argument of perigee: 80.6110°
revolutions per day: 14.78886312
mean anomaly at epoch: 279.7950°
orbit number at epoch: 40853

The dashed part of the orbit path shows where the satellite is in the earth's shadow,  

DLR